HB9CJD-1 Weather Reports


Display with metric or nautical units.
time (UTC)temp
F
wind
direction
speed
MPH
gust
MPH
rain 1hr
in
rain 24hr
in
rain mn
in
humidity
%
barometer
mb
20260502195037 72 0 0.0 0.0 0.00 0.00 0.00 36 1019.3
20260502194034 72 0 0.0 0.0 0.00 0.00 0.00 36 1019.3
20260502193031 73 0 0.0 0.0 0.00 0.00 0.00 38 1019.3
20260502192028 73 0 0.0 0.0 0.00 0.00 0.00 36 1019.3
20260502191024 73 0 0.0 0.0 0.00 0.00 0.00 38 1019.3
20260502190021 73 0 0.0 0.0 0.00 0.00 0.00 37 1019.3
20260502185018 74 0 0.0 0.0 0.00 0.00 0.00 35 1019.2
20260502184015 75 0 0.0 0.0 0.00 0.00 0.00 35 1019.1
20260502183011 76 0 0.0 0.0 0.00 0.00 0.00 36 1019.1
20260502182008 77 0 0.0 0.0 0.00 0.00 0.00 33 1019.0
20260502181005 78 0 0.0 0.0 0.00 0.00 0.00 33 1019.0
20260502163936 87 0 0.0 0.0 0.00 0.00 0.00 29 1019.1
20260502162932 86 0 0.0 0.0 0.00 0.00 0.00 29 1019.1
20260502161929 86 0 0.0 0.0 0.00 0.00 0.00 28 1019.2
20260502160926 84 0 0.0 0.0 0.00 0.00 0.00 30 1019.5
20260502151910 82 0 0.0 0.0 0.00 0.00 0.00 28 1019.9
20260502150906 81 0 0.0 0.0 0.00 0.00 0.00 32 1020.0
20260502122815 77 0 0.0 0.0 0.00 0.00 0.00 31 1022.2
20260502121811 77 0 0.0 0.0 0.00 0.00 0.00 34 1022.4
20260502120808 75 0 0.0 0.0 0.00 0.00 0.00 36 1022.4
20260502115805 75 0 0.0 0.0 0.00 0.00 0.00 35 1022.7
20260502114801 74 0 0.0 0.0 0.00 0.00 0.00 39 1022.7
20260502113758 74 0 0.0 0.0 0.00 0.00 0.00 39 1022.8
20260502112755 73 0 0.0 0.0 0.00 0.00 0.00 39 1023.0
20260502111752 74 0 0.0 0.0 0.00 0.00 0.00 39 1023.2
20260502110748 74 0 0.0 0.0 0.00 0.00 0.00 41 1023.3
20260502105745 73 0 0.0 0.0 0.00 0.00 0.00 44 1023.5
20260502104742 72 0 0.0 0.0 0.00 0.00 0.00 41 1023.7
20260502103738 72 0 0.0 0.0 0.00 0.00 0.00 42 1023.7
20260502102735 71 0 0.0 0.0 0.00 0.00 0.00 43 1023.9
20260502101732 70 0 0.0 0.0 0.00 0.00 0.00 45 1024.0
20260502100729 70 0 0.0 0.0 0.00 0.00 0.00 45 1024.1
20260502090709 67 0 0.0 0.0 0.00 0.00 0.00 50 1024.7
20260502070630 56 0 0.0 0.0 0.00 0.00 0.00 56 1025.1
20260502065628 56 0 0.0 0.0 0.00 0.00 0.00 59 1025.1
20260502064624 56 0 0.0 0.0 0.00 0.00 0.00 59 1025.1
20260502063621 56 0 0.0 0.0 0.00 0.00 0.00 57 1025.1
20260502062617 56 0 0.0 0.0 0.00 0.00 0.00 57 1025.1
20260502061614 55 0 0.0 0.0 0.00 0.00 0.00 59 1025.1
20260502060611 55 0 0.0 0.0 0.00 0.00 0.00 59 1025.1
20260502055608 55 0 0.0 0.0 0.00 0.00 0.00 56 1025.0
20260502054604 55 0 0.0 0.0 0.00 0.00 0.00 55 1024.9
20260502053601 54 0 0.0 0.0 0.00 0.00 0.00 53 1025.0
20260502052558 54 0 0.0 0.0 0.00 0.00 0.00 52 1025.0
20260502051554 54 0 0.0 0.0 0.00 0.00 0.00 53 1024.9
20260502050551 54 0 0.0 0.0 0.00 0.00 0.00 53 1024.9
20260502045548 54 0 0.0 0.0 0.00 0.00 0.00 53 1024.8
20260502044545 54 0 0.0 0.0 0.00 0.00 0.00 53 1024.8
20260502043542 54 0 0.0 0.0 0.00 0.00 0.00 51 1024.7
20260502042538 54 0 0.0 0.0 0.00 0.00 0.00 50 1024.7
20260502041535 54 0 0.0 0.0 0.00 0.00 0.00 50 1024.7
20260502040532 54 0 0.0 0.0 0.00 0.00 0.00 50 1024.7
20260502035529 54 0 0.0 0.0 0.00 0.00 0.00 49 1024.7
20260502034525 55 0 0.0 0.0 0.00 0.00 0.00 50 1024.7
20260502033522 55 0 0.0 0.0 0.00 0.00 0.00 50 1024.7
20260502032519 55 0 0.0 0.0 0.00 0.00 0.00 50 1024.7
20260502031516 55 0 0.0 0.0 0.00 0.00 0.00 49 1024.7
20260502030512 55 0 0.0 0.0 0.00 0.00 0.00 49 1024.7
20260502025509 55 0 0.0 0.0 0.00 0.00 0.00 49 1024.7
20260502024506 56 0 0.0 0.0 0.00 0.00 0.00 48 1024.8
20260502023503 56 0 0.0 0.0 0.00 0.00 0.00 48 1024.7
20260502022459 56 0 0.0 0.0 0.00 0.00 0.00 48 1024.7
20260502021456 56 0 0.0 0.0 0.00 0.00 0.00 48 1024.7
20260502020453 56 0 0.0 0.0 0.00 0.00 0.00 47 1024.7
20260502015450 56 0 0.0 0.0 0.00 0.00 0.00 46 1024.7
20260502014446 57 0 0.0 0.0 0.00 0.00 0.00 47 1024.7
20260502013443 57 0 0.0 0.0 0.00 0.00 0.00 46 1024.8
20260502012440 57 0 0.0 0.0 0.00 0.00 0.00 45 1024.7
20260502011437 57 0 0.0 0.0 0.00 0.00 0.00 45 1024.7
20260502010433 57 0 0.0 0.0 0.00 0.00 0.00 44 1024.7
20260502005430 58 0 0.0 0.0 0.00 0.00 0.00 43 1024.7
20260502004428 58 0 0.0 0.0 0.00 0.00 0.00 43 1024.8
20260502003424 58 0 0.0 0.0 0.00 0.00 0.00 43 1024.8
20260502002420 58 0 0.0 0.0 0.00 0.00 0.00 42 1024.8
20260502001417 59 0 0.0 0.0 0.00 0.00 0.00 43 1024.8
20260502000414 59 0 0.0 0.0 0.00 0.00 0.00 47 1024.8
20260501235411 59 0 0.0 0.0 0.00 0.00 0.00 46 1024.9
20260501234408 60 0 0.0 0.0 0.00 0.00 0.00 45 1024.9
20260501233404 60 0 0.0 0.0 0.00 0.00 0.00 43 1025.0
20260501232401 60 0 0.0 0.0 0.00 0.00 0.00 41 1024.9
20260501231358 61 0 0.0 0.0 0.00 0.00 0.00 41 1024.8
20260501230354 61 0 0.0 0.0 0.00 0.00 0.00 40 1024.9
20260501225351 61 0 0.0 0.0 0.00 0.00 0.00 40 1024.9
20260501224348 61 0 0.0 0.0 0.00 0.00 0.00 39 1024.9
20260501223345 62 0 0.0 0.0 0.00 0.00 0.00 37 1024.8
20260501222341 62 0 0.0 0.0 0.00 0.00 0.00 35 1024.9
20260501221338 62 0 0.0 0.0 0.00 0.00 0.00 35 1024.9
20260501220335 63 0 0.0 0.0 0.00 0.00 0.00 35 1024.8
20260501215331 63 0 0.0 0.0 0.00 0.00 0.00 36 1024.9
20260501214328 63 0 0.0 0.0 0.00 0.00 0.00 36 1024.8
20260501213325 63 0 0.0 0.0 0.00 0.00 0.00 36 1024.8
20260501212322 64 0 0.0 0.0 0.00 0.00 0.00 34 1024.8
20260501211319 64 0 0.0 0.0 0.00 0.00 0.00 35 1024.8
20260501210315 64 0 0.0 0.0 0.00 0.00 0.00 35 1024.8
20260501205312 65 0 0.0 0.0 0.00 0.00 0.00 36 1024.8
20260501204309 65 0 0.0 0.0 0.00 0.00 0.00 35 1024.9
20260501203306 66 0 0.0 0.0 0.00 0.00 0.00 34 1024.9
20260501202306 66 0 0.0 0.0 0.00 0.00 0.00 34 1024.9
20260501201259 67 0 0.0 0.0 0.00 0.00 0.00 33 1024.9
20260501200256 67 0 0.0 0.0 0.00 0.00 0.00 33 1024.8